Theta_e
309 308 306 301 308 312 312 309 301 301 302 305 312 316 319 318 317 320 320 319 318 326 329 328 328 330 330 326 327 325 323 325 323 323 322 319 317 319 319 324 326 329 328 326 324
311 309 308 304 302 308 313 312 310 301 301 305 310 315 317 318 317 319 320 318 319 324 328 328 330 330 325 325 326 324 326 324 321 319 320 321 320 320 318 319 324 327 328 327 327
312 311 308 308 301 305 308 311 312 306 301 305 312 315 317 318 317 318 319 318 318 324 326 328 330 330 326 323 324 323 325 322 320 323 325 324 321 322 318 317 320 323 326 327 328
313 312 310 308 307 302 305 310 312 309 302 303 308 315 317 319 314 317 318 319 318 323 326 327 327 329 322 322 324 323 323 323 325 326 325 323 325 321 322 323 322 318 318 321 327
316 313 311 309 308 302 306 306 311 311 307 304 306 314 316 318 316 320 321 318 320 323 324 325 328 326 325 322 322 322 323 324 325 324 324 323 323 324 320 327 327 320 317 319 324
314 315 313 311 308 307 301 306 305 309 309 309 309 314 316 317 317 316 319 320 319 322 324 325 324 325 326 323 322 322 323 323 323 324 323 321 322 321 325 327 325 326 320 318 321
312 315 314 312 310 308 305 305 302 305 308 310 311 312 314 315 317 317 317 318 320 319 321 323 324 325 325 321 322 323 324 323 322 322 323 324 323 320 324 325 326 326 327 316 319
309 312 314 314 311 308 307 302 306 302 305 310 311 311 311 311 315 318 318 318 319 320 321 321 322 325 324 322 322 325 324 328 323 323 324 323 327 322 325 323 320 320 322 319 316
309 310 312 314 313 309 307 301 303 300 302 309 312 312 312 310 311 314 317 318 319 320 321 321 322 322 321 323 324 325 325 327 325 324 324 322 324 322 324 322 323 323 322 322 320
307 309 311 315 313 310 308 303 302 303 306 310 311 312 311 312 309 310 314 317 319 319 320 319 320 319 320 323 325 322 325 323 324 322 324 323 324 322 324 323 320 319 320 321 320
306 308 309 310 313 312 308 304 305 307 309 310 310 311 313 312 311 310 311 314 318 319 320 319 321 319 319 320 318 320 322 323 323 321 324 324 323 322 322 323 322 323 324 325 322
306 306 308 308 310 313 309 303 303 304 308 310 312 311 313 312 313 313 311 315 316 319 318 320 320 318 315 316 320 321 323 322 320 322 324 322 323 321 321 322 323 323 322 322 324
305 306 306 307 312 313 309 306 303 305 306 308 310 311 312 313 314 313 314 315 315 318 319 320 317 317 319 318 319 320 322 322 323 322 322 323 324 321 320 321 321 322 322 323 323
304 305 305 307 309 311 310 307 304 306 305 306 309 311 312 312 313 314 314 313 315 316 317 318 317 318 318 319 320 321 317 318 320 322 323 321 323 319 319 320 320 322 322 322 323
303 304 305 305 310 311 310 306 304 305 304 301 308 310 312 312 312 315 314 315 313 314 315 316 317 318 319 320 319 321 319 319 320 322 321 321 324 319 319 321 320 320 322 322 323
301 302 305 306 307 310 309 305 305 302 303 301 309 311 312 312 312 312 315 315 315 314 313 312 316 317 317 317 317 319 320 320 321 322 324 321 321 320 319 319 319 319 320 321 322
300 301 304 306 308 310 309 303 306 304 298 304 309 310 310 312 312 311 313 315 315 315 316 315 315 316 317 319 318 319 321 323 323 324 323 318 322 323 318 317 316 318 319 321 322
300 301 303 305 307 308 307 303 306 299 295 303 305 308 309 309 310 312 312 313 313 312 316 319 318 314 315 316 317 320 321 322 324 321 318 315 321 319 316 317 318 319 319 320 319
300 301 302 304 306 308 305 305 306 302 296 305 306 307 308 309 308 311 310 312 312 314 314 313 313 314 314 315 314 316 321 318 321 307 316 316 314 313 312 313 313 315 318 317 317
299 301 302 303 304 307 305 308 304 300 303 305 303 304 306 307 308 309 311 310 310 312 313 316 318 314 314 316 316 317 315 321 319 322 321 316 315 318 315 315 314 312 313 313 312
299 300 301 303 303 306 306 306 297 297 305 301 301 303 303 306 308 308 306 308 309 311 313 314 315 316 315 317 318 319 320 320 318 319 322 315 315 309 314 313 312 309 311 311 311
300 300 301 302 302 301 306 303 297 299 302 302 302 301 302 303 307 308 307 306 310 310 313 312 311 316 316 312 314 316 317 318 321 318 316 312 318 311 307 308 308 309 313 317 315
299 300 302 302 304 304 301 301 302 303 302 304 305 306 305 305 307 306 307 309 310 311 312 313 313 315 316 314 313 318 317 317 317 315 315 317 318 308 309 307 309 306 312 314 316
299 300 299 303 300 302 303 301 302 302 301 301 302 304 305 306 305 307 307 309 311 312 313 313 311 315 315 316 315 317 317 318 318 320 318 317 317 315 314 313 313 315 314 314 314
299 300 299 300 302 302 302 301 303 303 301 302 304 306 306 307 307 308 307 307 308 312 312 310 308 313 312 310 312 313 316 317 319 319 319 317 317 316 315 313 314 314 314 313 313
299 299 300 300 302 301 303 302 303 300 301 302 305 305 304 306 306 309 309 309 309 309 311 310 312 310 311 311 312 313 313 314 316 316 317 318 318 316 316 316 314 316 316 315 314
299 299 301 302 302 302 301 301 302 300 299 300 301 301 304 303 304 307 307 307 306 308 310 310 310 310 310 308 311 310 312 313 313 314 315 317 315 314 314 314 314 315 315 315 315
Wind_Speed
22 20 19 22 21 18 15 15 17 18 19 20 18 15 13 12 13 12 12 13 16 8 5 8 10 9 6 2 5 6 4 4 5 3 4 7 9 10 10 6 5 7 8 5 5
25 23 21 20 23 21 18 14 13 16 16 16 17 14 13 12 13 15 15 15 15 16 14 9 7 9 5 5 4 3 4 10 9 9 5 6 3 10 6 13 8 13 16 14 8
29 26 24 21 22 24 21 17 13 13 15 15 16 13 10 10 7 12 14 15 15 14 11 11 7 8 6 6 6 4 4 2 8 10 9 5 3 5 2 5 10 14 16 19 16
33 29 27 24 21 23 25 19 15 12 13 14 16 15 12 11 6 2 8 16 17 18 10 12 13 8 5 5 6 3 7 9 7 14 7 7 7 5 13 20 18 21 25 21 24
34 33 29 27 23 21 24 25 18 13 12 13 15 17 14 12 9 5 4 8 21 19 18 14 14 7 5 7 7 4 4 8 19 10 19 10 14 14 13 25 23 16 21 24 24
31 35 33 29 26 23 22 25 24 17 12 14 15 17 16 12 10 21 4 7 19 22 17 16 11 15 6 4 7 6 8 7 6 12 13 6 12 7 15 23 23 21 23 21 25
32 34 35 32 27 25 22 21 24 22 15 16 16 19 16 18 7 16 20 11 1 21 19 19 17 11 6 4 6 3 3 3 9 7 5 8 10 10 32 27 27 26 25 22 26
45 31 35 35 31 27 23 22 20 24 19 18 19 17 9 20 17 7 10 12 8 14 17 16 16 11 5 6 2 2 1 7 2 12 7 9 15 10 20 24 25 21 21 23 25
39 39 33 39 36 29 25 22 19 20 20 19 17 13 7 12 21 21 6 7 13 12 20 18 13 10 7 3 2 4 7 5 6 9 3 7 2 7 12 20 25 27 27 25 26
37 42 36 37 38 32 27 22 18 18 18 16 13 11 13 11 14 25 22 8 11 14 11 12 8 4 4 7 10 7 4 4 6 6 7 8 14 15 29 22 24 27 26 26 27
36 38 42 36 35 33 32 27 16 8 22 9 10 6 4 14 14 19 25 21 10 13 6 9 9 14 15 13 7 5 6 11 3 6 6 11 13 13 25 20 23 31 35 40 38
37 36 39 39 35 44 42 44 37 12 11 20 5 22 4 18 8 13 23 15 11 11 12 5 17 7 7 10 8 11 14 15 5 4 5 7 18 12 18 24 26 32 33 39 46
39 36 36 37 40 56 52 47 34 22 9 17 16 18 17 12 6 21 26 17 6 11 15 13 3 15 8 10 14 14 16 9 6 2 4 7 21 15 16 34 32 39 43 39 45
37 37 34 41 35 52 54 45 34 20 4 5 14 10 21 12 4 14 28 20 6 14 7 10 11 7 16 17 13 19 14 18 15 6 11 5 16 6 6 14 12 27 34 40 48
36 34 37 41 31 40 55 46 34 15 7 7 10 11 19 17 14 15 24 17 10 8 9 6 10 14 12 10 12 6 5 11 12 12 10 14 8 6 11 16 16 18 36 42 46
40 38 35 39 45 46 42 46 37 6 7 6 11 16 13 17 9 15 15 16 12 8 1 9 3 5 7 11 12 3 5 9 8 7 10 25 14 21 14 16 13 16 32 36 39
42 40 38 41 46 36 55 45 10 7 2 10 11 20 22 12 12 8 14 13 9 6 14 9 8 1 7 3 7 13 7 4 5 5 9 3 10 22 8 10 9 14 27 32 28
38 42 42 38 38 41 55 13 8 6 7 4 9 16 22 12 16 8 10 13 14 4 4 7 7 20 7 11 5 7 8 4 4 4 3 2 10 7 8 20 27 25 33 38 34
32 35 37 45 36 53 39 18 9 16 10 11 18 17 11 13 7 14 11 11 12 15 12 7 6 3 6 6 12 6 11 11 5 3 2 5 8 7 9 13 12 24 31 34 31
37 34 32 46 40 40 21 19 12 8 8 17 7 7 16 24 14 19 15 15 10 17 15 3 4 5 7 7 9 5 6 5 6 8 6 6 6 8 7 13 10 10 12 22 23
34 15 25 30 33 27 16 4 6 6 21 7 5 7 8 18 16 18 7 3 21 10 19 6 3 2 11 13 17 7 4 4 3 3 5 3 6 8 13 9 8 8 15 20 26
24 6 24 35 13 3 12 13 9 8 3 4 5 5 6 11 17 19 12 10 18 17 17 11 2 3 10 1 7 13 9 9 3 4 4 2 12 2 7 8 6 11 15 15 26
17 3 28 48 13 7 7 8 6 8 6 6 4 3 4 10 10 6 12 7 16 18 16 11 5 3 2 4 3 7 14 15 13 2 9 3 11 4 1 5 15 13 13 19 26
9 3 6 20 5 8 16 13 8 4 4 5 6 4 8 8 3 13 8 4 18 14 18 20 4 4 5 2 3 8 12 17 13 5 16 16 29 20 17 14 15 28 29 25 24
12 4 7 3 9 10 14 19 16 7 2 7 2 5 8 6 3 5 5 4 2 12 7 5 6 7 6 4 4 1 10 14 14 20 10 29 19 24 18 9 18 25 29 26 28
11 4 5 3 22 19 8 14 20 4 6 8 9 11 5 8 8 12 13 5 5 4 6 3 3 3 4 4 9 6 11 11 22 21 19 25 29 33 32 31 25 32 37 33 32
5 4 7 11 11 13 7 21 18 11 5 9 12 8 6 6 15 16 13 16 10 8 5 7 6 3 2 3 2 6 19 22 17 19 20 19 34 33 12 14 23 28 31 36 36
Wind_Direction
241 240 238 231 227 242 246 244 241 238 233 230 230 231 226 226 227 221 218 224 228 216 208 231 234 237 242 218 152 139 80 159 191 182 265 355 22 1 328 290 258 231 237 264 206
239 238 234 232 225 229 239 242 243 237 232 222 220 223 225 228 229 235 234 233 219 220 232 248 237 203 148 157 158 150 151 206 181 175 200 304 327 335 346 327 283 264 258 250 238
238 237 235 231 226 221 231 237 240 235 227 216 211 212 211 225 234 259 249 244 220 219 226 231 220 201 170 172 180 152 186 186 248 201 223 200 285 250 255 291 286 286 292 262 237
236 234 233 231 229 220 220 224 227 233 218 213 207 203 199 188 202 198 224 217 205 209 208 210 213 183 156 172 184 170 235 193 241 229 218 221 201 220 232 258 276 299 284 282 248
236 233 231 230 229 223 214 220 220 223 220 207 198 199 197 198 212 151 89 204 193 201 202 207 204 179 191 173 162 172 231 230 244 260 239 249 230 222 221 265 274 283 292 271 263
235 234 229 227 224 224 217 216 220 218 208 200 193 196 202 213 225 225 215 66 197 196 195 208 223 220 228 185 192 194 227 237 252 254 256 264 270 203 253 258 250 264 278 276 262
238 234 230 226 222 220 219 215 212 212 203 196 195 205 215 214 208 224 241 242 218 209 201 206 215 208 179 166 204 202 268 286 246 237 217 268 273 219 252 260 261 254 258 272 264
235 235 232 225 219 215 215 212 205 204 202 199 206 210 227 225 214 184 220 223 208 200 208 226 228 209 218 142 108 196 189 249 208 190 229 163 265 270 257 248 246 255 254 261 263
237 230 228 220 217 209 207 207 198 197 197 202 205 199 228 221 217 217 205 193 198 197 202 213 217 223 157 194 213 184 254 243 291 195 136 182 263 279 287 245 252 248 249 254 260
231 226 225 224 211 202 197 195 188 188 191 195 199 191 231 204 210 213 216 200 180 192 185 188 201 203 180 189 225 219 226 216 215 221 195 221 239 270 272 271 265 268 253 251 252
228 225 223 222 226 201 187 173 168 190 191 185 194 199 129 181 190 196 206 206 189 166 171 202 200 217 214 219 246 281 238 238 219 221 214 240 251 244 267 270 261 265 266 259 251
227 224 220 223 226 205 190 186 182 188 179 207 201 193 140 180 156 193 194 178 190 200 171 187 231 213 201 216 232 228 249 262 263 210 202 279 268 246 261 260 254 263 262 262 263
224 223 221 215 221 207 193 194 175 148 137 211 210 206 198 178 183 187 183 183 181 198 192 209 158 201 213 207 219 236 240 250 262 321 250 293 282 266 250 254 254 249 253 254 255
227 220 217 208 212 197 197 194 178 162 94 211 196 226 202 187 233 198 189 175 190 204 190 236 231 209 212 222 199 234 222 242 258 272 264 137 284 250 271 270 236 242 250 249 251
224 221 214 207 206 201 187 185 176 156 179 198 173 189 184 171 148 187 192 189 173 167 177 208 169 197 213 214 198 236 161 222 229 239 263 244 266 295 217 250 260 240 253 253 255
223 222 213 206 211 215 183 172 163 126 221 158 147 173 161 187 177 157 182 198 203 189 226 215 207 197 222 201 215 108 235 273 264 261 227 243 219 268 241 246 256 255 254 263 267
220 222 213 208 213 210 181 159 179 183 236 161 176 178 178 173 178 164 180 193 192 163 202 210 208 181 177 168 194 191 197 241 232 203 250 210 207 245 297 283 235 250 265 272 270
210 217 211 215 209 196 166 164 189 166 202 161 154 175 190 150 199 162 157 202 212 168 137 197 196 216 181 202 166 202 207 219 208 213 285 37 227 260 239 250 260 270 274 273 273
204 212 217 209 200 185 166 189 179 178 160 127 134 163 192 198 156 182 200 204 201 193 199 183 241 73 199 161 166 181 220 221 271 161 245 216 284 270 246 270 284 264 266 271 286
206 211 211 210 215 186 177 205 165 183 109 140 140 170 181 187 182 190 184 215 211 192 203 190 279 182 184 138 207 184 134 165 202 247 242 250 254 237 298 278 280 298 303 317 318
198 193 211 209 202 194 201 178 123 174 136 146 164 129 175 174 184 189 212 272 193 164 180 179 246 200 142 199 190 171 191 192 184 188 224 288 252 207 224 247 246 286 344 338 336
188 182 190 186 191 182 191 145 127 145 160 143 121 112 150 144 182 194 213 207 189 148 188 173 149 216 202 12 200 211 188 205 232 202 226 208 264 354 241 233 267 295 305 342 345
175 148 176 182 189 170 129 125 109 153 171 170 118 98 124 151 174 185 184 208 184 174 176 163 214 210 153 304 331 210 212 214 222 301 233 245 266 345 229 308 295 290 295 322 339
134 147 213 186 148 130 148 150 129 117 83 76 110 88 107 158 343 183 159 180 183 173 183 164 147 211 200 163 136 213 207 220 216 226 252 244 263 259 270 295 301 295 291 303 317
205 158 174 150 156 138 149 160 140 137 120 147 92 153 139 140 129 175 127 108 55 199 174 166 175 192 201 168 102 333 224 219 221 237 232 257 259 268 276 272 282 288 293 299 301
159 140 151 106 145 142 141 165 156 101 138 174 165 165 147 154 186 176 160 137 177 204 156 165 176 156 208 255 212 224 234 251 231 239 250 261 274 262 272 281 282 283 284 285 287
161 179 160 150 149 153 166 163 176 141 25 146 137 124 118 165 141 158 163 167 160 157 150 159 164 138 228 194 152 278 237 232 242 242 243 248 254 271 284 283 269 269 274 284 285